This demonstration page uses our WeatherBlox Daily Observations layout. Learn more.

Left ArrowRight Arrow

39.92423, -83.80882

Hourly Observations for February 15, 2016

Temp ( °F °C ) Dew Point ( °F °C ) Humidity (%) Winds ( mph kmh ) Pressure ( in mb ) Visibility ( mi km ) Precip ( " mm )
12:56 am 00:56 Cloudy 18 -7.7 15 -9.4 88 88 SE 12 19 30.13 1020 10 16 N/A
1:13 am 01:13 Cloudy 18 -8 16 -9 93 93 SE 13 20 30.18 1022 10 16 N/A
1:56 am 01:56 Cloudy 19 -7.2 16 -8.8 88 88 SE 9 15 30.12 1020 10 16 N/A
2:30 am 02:30 Cloudy 19 -7 18 -8 93 93 SE 16 26 30.15 1021 10 16 N/A
2:56 am 02:56 Cloudy 20 -6.6 17 -8.3 88 88 SE 12 19 30.08 1019 10 16 N/A
3:56 am 03:56 Cloudy 20 -6.6 19 -7.2 96 96 SSE 12 19 30.07 1018 7 11 N/A
4:29 am 04:29 Cloudy with Mist and Fog 21 -6 19 -7 93 93 SE 10 17 30.09 1019 3 4 N/A
4:36 am 04:36 Cloudy with Mist and Fog 21 -6 19 -7 93 93 SE 10 17 30.09 1019 2 3 N/A
4:56 am 04:56 Cloudy with Mist and Fog 21 -6.1 20 -6.6 96 96 SE 10 17 30.04 1017 2 3 N/A
5:04 am 05:04 Cloudy with Mist and Fog 21 -6 21 -6 100 100 SE 9 15 30.09 1019 2 3 N/A
5:19 am 05:19 Cloudy with Mist and Fog 21 -6 21 -6 100 100 SE 9 15 30.09 1019 2 3 N/A
5:45 am 05:45 Cloudy with Mist and Fog 21 -6 21 -6 100 100 SSE 9 15 30.09 1019 2 2 N/A
5:56 am 05:56 Cloudy with Mist and Fog 22 -5.5 21 -6.1 96 96 SSE 7 11 30.05 1018 2 2 N/A
6:10 am 06:10 Cloudy with Mist and Fog 21 -6 21 -6 100 100 SSE 7 11 30.09 1019 2 3 N/A
6:17 am 06:17 Cloudy with Mist and Fog 21 -6 21 -6 100 100 SSE 6 9 30.09 1019 2 2 N/A
6:26 am 06:26 Cloudy with Mist and Fog 23 -5 21 -6 93 93 SSE 8 13 30.09 1019 1 2 N/A
6:56 am 06:56 Cloudy with Mist and Fog 24 -4.4 23 -5 96 96 SSE 6 9 30.04 1017 1 2 N/A
7:06 am 07:06 Cloudy with Mist and Fog 25 -4 23 -5 93 93 SSE 6 9 30.09 1019 2 3 N/A
7:16 am 07:16 Cloudy with Mist and Fog 25 -4 23 -5 93 93 SSE 7 11 30.09 1019 3 4 N/A
7:33 am 07:33 Cloudy with Mist and Fog 25 -4 25 -4 100 100 SSE 7 11 30.09 1019 2 2 N/A
7:56 am 07:56 Cloudy with Mist and Fog 25 -3.8 25 -3.8 100 100 S 6 9 30.04 1017 2 3 N/A
8:16 am 08:16 Cloudy with Mist and Fog 27 -3 27 -3 100 100 SSE 7 11 30.06 1018 2 3 N/A
8:34 am 08:34 Cloudy with Mist and Fog 27 -3 27 -3 100 100 S 6 9 30.06 1018 4 6 N/A
8:56 am 08:56 Cloudy 27 -2.7 26 -3.3 96 96 S 5 7 30.04 1017 10 16 N/A
9:27 am 09:27 Cloudy with Mist and Fog 28 -2 27 -3 93 93 S 5 7 30.06 1018 2 3 N/A
9:40 am 09:40 Cloudy with Mist and Fog 28 -2 28 -2 100 100 S 6 9 30.06 1018 1 2 N/A
9:56 am 09:56 Cloudy with Mist and Fog 28 -2.2 28 -2.2 100 100 S 5 7 30.03 1017 1 2 N/A
10:07 am 10:07 Cloudy with Mist and Fog 28 -2 28 -2 100 100 S 7 11 30.03 1017 1 2 N/A
10:20 am 10:20 Cloudy with Mist and Fog 28 -2 28 -2 100 100 S 6 9 30.06 1018 1 1 N/A
10:56 am 10:56 Cloudy with Mist and Fog 30 -1.1 30 -1.1 100 100 S 7 11 30.01 1016 1 1 N/A
11:19 am 11:19 Cloudy with Mist and Fog 30 -1 30 -1 100 100 S 7 11 30.03 1017 1 2 N/A
11:30 am 11:30 Cloudy with Mist and Fog 32 undefined 32 undefined 100 100 S 8 13 30.03 1017 2 2 N/A
11:43 am 11:43 Cloudy with Mist and Fog 32 undefined 32 undefined 100 100 S 7 11 30.00 1016 3 4 N/A
11:56 am 11:56 Cloudy with Mist and Fog 32 undefined 32 undefined 100 100 S 8 13 29.99 1016 4 6 N/A
12:56 pm 12:56 Cloudy 33 0.5 32 undefined 96 96 S 8 13 29.96 1015 8 13 N/A
1:15 pm 13:15 Cloudy 34 1 34 1 100 100 S 9 15 29.97 1015 10 16 N/A
1:56 pm 13:56 Cloudy 34 1.1 33 0.5 96 96 S 6 9 29.93 1014 9 14 N/A
2:56 pm 14:56 Cloudy 34 1.1 33 0.5 96 96 S 7 11 29.92 1013 9 14 N/A
3:56 pm 15:56 Cloudy with Mist and Fog 34 1.1 34 1.1 100 100 SSW 5 7 29.91 1013 6 10 N/A
4:39 pm 16:39 Cloudy with Mist and Fog 34 1 34 1 100 100 S 3 6 29.91 1013 3 5 N/A
4:45 pm 16:45 Cloudy with Mist and Fog 34 1 34 1 100 100 S 5 7 29.91 1013 2 3 N/A
4:56 pm 16:56 Cloudy with Mist and Fog 34 1.1 34 1.1 100 100 SSE 5 7 29.90 1012 1 2 N/A
5:05 pm 17:05 Cloudy with Fog 34 1 34 1 100 100 N N/A 29.91 1013 1 1 N/A
5:23 pm 17:23 Cloudy with Fog 34 1 34 1 100 100 N N/A 29.91 1013 0 0 N/A
5:31 pm 17:31 Cloudy with Fog 34 1 34 1 100 100 SSE 3 6 29.91 1013 5 8 N/A
5:56 pm 17:56 Cloudy with Fog 34 1.1 34 1.1 100 100 N N/A 29.89 1012 5 8 N/A
6:56 pm 18:56 Cloudy with Fog 33 0.5 33 0.5 100 100 NE 5 7 29.88 1012 5 8 N/A
7:56 pm 19:56 Cloudy with Fog 33 0.5 33 0.5 100 100 E 5 7 29.88 1012 5 8 N/A
8:56 pm 20:56 Cloudy with Fog 33 0.5 33 0.5 100 100 E 6 9 29.86 1011 5 8 N/A
9:56 pm 21:56 Cloudy with Fog 33 0.5 33 0.5 100 100 ESE 5 7 29.85 1011 5 8 N/A
10:56 pm 22:56 Cloudy with Fog 33 0.5 33 0.5 100 100 ENE 5 7 29.83 1010 5 8 N/A
11:14 pm 23:14 Cloudy with Fog 34 1 34 1 100 100 E 5 7 29.83 1010 0 0 N/A
11:56 pm 23:56 Cloudy with Fog 32 undefined 32 undefined 100 100 ENE 3 6 29.80 1009 0 0 N/A

Powered by AerisWeather